Location: Lynch Observatory
(39.9540°N, 75.1861°W)
Time: 01:16:30
(UTC-04:00)

Tiros 1 - Visible Passes

Search period start: 16 July 2024 00:00
Search period end: 26 July 2024 00:00
Orbit: 624 x 656 km, 48.4° (Epoch: 15 July)

Date Brightness Start Highest point End Pass type
(mag) Time Alt. Az. Time Alt. Az. Time Alt. Az.
16 Jul 7.2 21:37:42 10° WNW 21:42:15 64° SW 21:45:21 20° SE visible
16 Jul 9.6 23:22:14 10° WSW 23:22:52 11° WSW 23:22:52 11° WSW visible
17 Jul 8.3 22:01:53 10° WNW 22:05:53 30° SW 22:08:02 20° S visible
18 Jul 9.3 22:27:06 10° W 22:29:19 13° SW 22:30:47 12° SSW visible
19 Jul 8.2 21:07:24 10° WNW 21:11:35 35° SW 21:15:44 10° SSE visible
20 Jul 9.3 21:32:15 10° W 21:35:03 16° SW 21:37:50 10° S visible
